Find Zhongxing 1E

NORAD ID: 53813 Int'l Des: 2022-112 Owner: ZLZB Country: CN operational
HEOCIRCULARGSOGEO

現在のビュー

3D地球を読み込み中...

About Zhongxing 1E

Zhongxing 1E (NORAD 53813) is a satellite launched Sep 13, 2022 by ZLZB of CN. It operates in HEO, CIRCULAR, GSO, GEO orbit with a mass of 5000.00 kg.

次回通過

Passes for default location (London). Set your location on the main map for personalized predictions.

高度履歴

Loading altitude history...

軌道要素

1 53813U 22112A 26194.86224890 -.00000155 00000-0 00000+0 0 9990
2 53813 0.0677 229.8558 0000940 49.7451 43.9310 1.00272592 14119
Epoch: Jul 13, 2026 • Age: 9 hours

現在のステータス

高度 35789.8 km
遠地点 / 近地点 N/A
速度 3.07 km/s
衛星直下点 -0.01°S, 81.4°E
打ち上げ日 Sep 13, 2022
運用期間 3.8 years
タイプ other

技術仕様

分類 Payload
質量 5000.00 kg
乾燥質量 2500.00 kg
総質量 5000.00 kg
長さ 5.00 m
直径 2.50 m
スパン 30.00 m
形状 Box + 2 Pan
製造者 CAST
バスタイプ DFH-4
フェーズステータス In Orbit
所有者/国 ZLZB/CN

Most Searched